Oakland, MD

6:58 AM EDT on June 24, 2017 (GMT -0400)
Oakland

Weather History for K2G4 - December, 2013

Change the Weather History Date:

Friday, December 6, 2013

  Actual Average (KMGW) Record (KMGW)
Temperature  
Mean Temperature 36 °F -  
Max Temperature 44 °F 44 °F 73 °F (1998)
Min Temperature 28 °F 28 °F 9 °F (2007)
Degree Days  
Heating Degree Days 29    
Moisture  
Dew Point 33 °F    
Average Humidity 100    
Maximum Humidity 100    
Minimum Humidity 100    
Precipitation  
Precipitation 0.00 in - - ()
Sea Level Pressure  
Sea Level Pressure 30.03 in    
Wind  
Wind Speed 6 mph (NNW)    
Max Wind Speed 12 mph    
Max Gust Speed 20 mph    
Averages and records for this station are not official NWS values.
T = Trace of Precipitation, MM = Missing Value Source: NWS Daily Summary

Daily Weather History Graph

Daily Weather History Graph

Search for Another Location

Airport or City:

Trip Planner

Search our weather history database for the weather conditions in past years. The results will help you decide how hot, cold, wet, or windy it might be!

Date:

Astronomy

Dec. 06, 2013 Rise Set
Actual Time 7:23 AM EST 4:53 PM EST
Civil Twilight 6:53 AM EST 5:23 PM EST
Nautical Twilight 6:20 AM EST 5:56 PM EST
Astronomical Twilight 5:47 AM EST 6:29 PM EST
Moon 10:28 AM EST (12/6) 9:22 PM EST (12/6)
Length of Visible Light 10h 29m
Length of Day
9h 29m
Waxing Crescent, 19% of the Moon is Illuminated
Dec 6
Waxing Crescent
Dec 9
First Quarter
Dec 17
Full
Dec 25
Last Quarter
Jan 1
New

Hourly Weather History & Observations

Time (EST) Temp. Windchill Dew Point Humidity Pressure Visibility Wind Dir Wind Speed Gust Speed Precip Events Conditions
12:10 AM 44.6 °F 42.2 °F 44.6 °F 100% 29.93 in 0.2 mi North 4.6 mph - N/A Fog Fog
12:30 AM 44.6 °F 38.8 °F 44.6 °F 100% 29.97 in 0.2 mi NW 11.5 mph 16.1 mph N/A Fog Fog
12:50 AM 41.0 °F 34.3 °F 41.0 °F 100% 29.97 in 0.2 mi NNW 11.5 mph 19.6 mph N/A Fog Fog
1:10 AM 41.0 °F 34.3 °F 41.0 °F 100% 29.96 in 0.2 mi NW 11.5 mph 19.6 mph N/A Fog Fog
1:30 AM 39.2 °F 32.5 °F 39.2 °F 100% 29.96 in 0.2 mi NW 10.4 mph - N/A Fog Fog
1:50 AM 37.4 °F 29.8 °F 37.4 °F 100% 29.97 in 0.2 mi NNW 11.5 mph 17.3 mph N/A Fog Fog
2:10 AM 37.4 °F 30.8 °F 37.4 °F 100% 29.97 in 0.8 mi NNW 9.2 mph 17.3 mph N/A   Overcast
2:30 AM 37.4 °F 32.1 °F 37.4 °F 100% 29.98 in 0.2 mi NNW 6.9 mph - N/A Fog Fog
2:50 AM 35.6 °F 31.7 °F 35.6 °F 100% 29.98 in 0.2 mi North 4.6 mph - N/A Fog Fog
3:10 AM 35.6 °F 29.9 °F 35.6 °F 100% 29.99 in 0.2 mi NNW 6.9 mph - N/A Fog Fog
3:30 AM 35.6 °F 29.9 °F 35.6 °F 100% 29.99 in 0.2 mi NNW 6.9 mph - N/A Fog Fog
3:50 AM 33.8 °F 28.6 °F 33.8 °F 100% 29.99 in 0.2 mi NNW 5.8 mph - N/A Fog Fog
4:10 AM 33.8 °F 29.6 °F 33.8 °F 100% 29.99 in 0.2 mi NW 4.6 mph - N/A Fog Fog
4:30 AM 33.8 °F 29.6 °F 33.8 °F 100% 29.99 in 0.2 mi NW 4.6 mph - N/A Fog Fog
4:50 AM 33.8 °F 29.6 °F 33.8 °F 100% 30.00 in 0.2 mi NW 4.6 mph - N/A Fog Fog
5:10 AM 33.8 °F 30.8 °F 33.8 °F 100% 29.99 in 0.2 mi NNW 3.5 mph - N/A Fog Fog
5:30 AM 33.8 °F 28.6 °F 33.8 °F 100% 29.99 in 0.2 mi NNW 5.8 mph - N/A Fog Fog
5:50 AM 33.8 °F 28.6 °F 33.8 °F 100% 30.01 in 0.2 mi NW 5.8 mph - N/A Fog Fog
6:10 AM 32.0 °F 24.8 °F 32.0 °F 100% 30.01 in 0.2 mi NNW 8.1 mph - N/A Fog Fog
6:30 AM 32.0 °F 26.4 °F 32.0 °F 100% 30.04 in 0.2 mi NW 5.8 mph - N/A Fog Fog
6:50 AM 32.0 °F 24.2 °F 32.0 °F 100% 30.08 in 0.2 mi WNW 9.2 mph - N/A Fog Fog
7:10 AM 32.0 °F 26.4 °F 32.0 °F 100% 30.04 in 0.2 mi NNW 5.8 mph - N/A Fog Fog
7:30 AM 32.0 °F 26.4 °F 32.0 °F 100% 30.03 in 0.2 mi NNW 5.8 mph - N/A Fog Fog
7:50 AM 32.0 °F 26.4 °F 32.0 °F 100% 30.04 in 0.2 mi NNW 5.8 mph - N/A Fog Fog
8:10 AM 32.0 °F 27.5 °F 32.0 °F 100% 30.03 in 0.2 mi NNW 4.6 mph - N/A Fog Fog
8:30 AM 32.0 °F 27.5 °F 32.0 °F 100% 30.04 in 0.2 mi NW 4.6 mph - N/A Fog Fog
8:50 AM 32.0 °F 27.5 °F 32.0 °F 100% 30.03 in 0.2 mi North 4.6 mph - N/A Fog Fog
9:10 AM 32.0 °F 26.4 °F 32.0 °F 100% 30.05 in 0.2 mi NNW 5.8 mph - N/A Fog Fog
9:30 AM 32.0 °F 27.5 °F 32.0 °F 100% 30.07 in 0.2 mi NW 4.6 mph - N/A Fog Fog
9:50 AM 32.0 °F 28.7 °F 32.0 °F 100% 30.08 in 0.2 mi NW 3.5 mph - N/A Fog Fog
10:10 AM 32.0 °F 28.7 °F 32.0 °F 100% 30.07 in 0.2 mi North 3.5 mph - N/A Fog Fog
10:30 AM 32.0 °F 25.6 °F 32.0 °F 100% 30.05 in 0.2 mi North 6.9 mph - N/A Fog Fog
10:50 AM 32.0 °F 26.4 °F 32.0 °F 100% 30.04 in 0.2 mi North 5.8 mph - N/A Fog Fog
11:10 AM 32.0 °F 25.6 °F 32.0 °F 100% 30.03 in 0.2 mi North 6.9 mph - N/A Fog Fog
11:30 AM 32.0 °F 24.8 °F 32.0 °F 100% 29.99 in 0.2 mi North 8.1 mph - N/A Fog Fog
11:50 AM 32.0 °F 27.5 °F 32.0 °F 100% 30.04 in 0.2 mi NW 4.6 mph - N/A Fog Fog
12:10 PM 32.0 °F 27.5 °F 32.0 °F 100% 30.05 in 0.2 mi NNW 4.6 mph - N/A Fog Fog
12:30 PM 32.0 °F 26.4 °F 32.0 °F 100% 30.04 in 0.2 mi NNW 5.8 mph - N/A Fog Fog
12:50 PM 32.0 °F 24.8 °F 32.0 °F 100% 29.99 in 0.2 mi North 8.1 mph - N/A Fog Fog
1:10 PM 32.0 °F 24.2 °F 32.0 °F 100% 29.98 in 0.2 mi North 9.2 mph - N/A Fog Fog
1:30 PM 32.0 °F 28.7 °F 32.0 °F 100% 30.01 in 0.2 mi NNW 3.5 mph - N/A Fog Light Freezing Fog
1:50 PM 32.0 °F - 32.0 °F 100% 30.01 in 0.2 mi Calm Calm - N/A Fog Light Freezing Fog
2:10 PM 32.0 °F 26.4 °F 32.0 °F 100% 30.01 in 0.2 mi NNW 5.8 mph - N/A Fog Light Freezing Fog
2:30 PM 32.0 °F 24.8 °F 32.0 °F 100% 29.99 in 0.2 mi North 8.1 mph - N/A Fog Light Freezing Fog
2:50 PM 32.0 °F 26.4 °F 32.0 °F 100% 29.98 in 0.2 mi North 5.8 mph - N/A Fog Light Freezing Fog
3:10 PM 32.0 °F 26.4 °F 32.0 °F 100% 29.98 in 0.2 mi North 5.8 mph - N/A Fog Light Freezing Fog
3:30 PM 32.0 °F 26.4 °F 32.0 °F 100% 30.01 in 0.2 mi North 5.8 mph - N/A Fog Light Freezing Fog
3:50 PM 32.0 °F 25.6 °F 32.0 °F 100% 30.03 in 0.2 mi NNW 6.9 mph - N/A Fog Light Freezing Fog
4:10 PM 32.0 °F 26.4 °F 32.0 °F 100% 30.00 in 0.2 mi North 5.8 mph - N/A Fog Light Freezing Fog
4:30 PM 32.0 °F 26.4 °F 32.0 °F 100% 30.01 in 0.2 mi NNW 5.8 mph - N/A Fog Light Freezing Fog
4:50 PM 30.2 °F 23.4 °F 30.2 °F 100% 30.00 in 0.2 mi North 6.9 mph - N/A Fog Light Freezing Fog
5:10 PM 30.2 °F - 30.2 °F 100% 30.02 in 0.5 mi Calm Calm - N/A Fog Light Freezing Fog
5:30 PM 32.0 °F - 32.0 °F 100% 30.06 in 0.2 mi Calm Calm - N/A Fog Light Freezing Fog
5:50 PM 32.0 °F - 32.0 °F 100% 30.06 in 0.2 mi Calm Calm - N/A Fog Light Freezing Fog
6:10 PM 32.0 °F 28.7 °F 32.0 °F 100% 30.02 in 0.2 mi North 3.5 mph - N/A Fog Light Freezing Fog
6:30 PM 30.2 °F 26.7 °F 30.2 °F 100% 30.02 in 0.2 mi NNE 3.5 mph - N/A Fog Light Freezing Fog
6:50 PM 30.2 °F - 30.2 °F 100% 30.06 in 1.8 mi Calm Calm - N/A   Mostly Cloudy
7:10 PM 30.2 °F 26.7 °F 30.2 °F 100% 30.07 in 0.2 mi WNW 3.5 mph - N/A Fog Light Freezing Fog
7:30 PM 30.2 °F - 30.2 °F 100% 30.06 in 0.2 mi Calm Calm - N/A Fog Light Freezing Fog
7:50 PM 30.2 °F - 30.2 °F 100% 30.06 in 0.2 mi Calm Calm - N/A Fog Light Freezing Fog
8:10 PM 30.2 °F - 30.2 °F 100% 30.04 in 0.2 mi Calm Calm - N/A Fog Light Freezing Fog
8:30 PM 30.2 °F 26.7 °F 30.2 °F 100% 30.09 in 0.2 mi WNW 3.5 mph - N/A Fog Light Freezing Fog
8:50 PM 30.2 °F - 30.2 °F 100% 30.08 in 0.2 mi Calm Calm - N/A Fog Light Freezing Fog
9:10 PM 30.2 °F 26.7 °F 30.2 °F 100% 30.10 in 0.2 mi NW 3.5 mph - N/A Fog Light Freezing Fog
9:30 PM 30.2 °F 26.7 °F 30.2 °F 100% 30.08 in 0.2 mi North 3.5 mph - N/A Fog Light Freezing Fog
9:50 PM 30.2 °F 26.7 °F 30.2 °F 100% 30.09 in 0.2 mi NNW 3.5 mph - N/A Fog Light Freezing Fog
10:10 PM 30.2 °F 25.4 °F 30.2 °F 100% 30.09 in 0.2 mi North 4.6 mph - N/A Fog Light Freezing Fog
10:30 PM 30.2 °F - 30.2 °F 100% 30.08 in 0.2 mi Calm Calm - N/A Fog Light Freezing Fog
10:50 PM 30.2 °F - 30.2 °F 100% 30.09 in 0.2 mi Calm Calm - N/A Fog Light Freezing Fog
11:10 PM 30.2 °F - 30.2 °F 100% 30.09 in 0.2 mi Calm Calm - N/A Fog Light Freezing Fog
11:30 PM 28.4 °F 24.6 °F 28.4 °F 100% 30.11 in 0.2 mi NNW 3.5 mph - N/A Fog Light Freezing Fog
11:50 PM 28.4 °F 24.6 °F 28.4 °F 100% 30.11 in 0.2 mi NNW 3.5 mph - N/A Fog Light Freezing Fog